Regional Weather Roundup
Issued by NWS Kansas City/Pleasant Hill, MO

Home | Current Version | Previous Version | Graphics & Text | Print | Product List | Glossary Off
Versions: 1 2 3 4 5 6 7 8 9 10 11 12 13 14 15 16 17 18 19 20 21 22 23 24 25 26 27 28 29 30 31 32 33 34 35 36 37 38 39 40 41 42 43 44 45 46 47 48 49 50

000
ASUS43 KEAX 060610
RWREAX

WEATHER ROUNDUP FOR EASTERN KANSAS AND NORTHWEST MISSOURI
NATIONAL WEATHER SERVICE KANSAS CITY/PLEASANT HILL MO
1200 AM CST SAT FEB 06 2016

KSZ040-057-103>105-MOZ028-029-037-043-060700-
...KANSAS CITY METROPOLITAN AREA...

CITY           SKY/WX    TMP DP  RH WIND       PRES   REMARKS
K.C. INTL      CLOUDY    34  24  67 CALM      30.26F
6HR MIN TEMP:  33; 6HR MAX TEMP:  40;

K.C. DOWNTOWN  CLOUDY    35  25  66 CALM      30.27F
6HR MIN TEMP:  34; 6HR MAX TEMP:  43;

LEES SUMMIT    CLOUDY    35  25  66 S3        30.27S
6HR MIN TEMP:  33; 6HR MAX TEMP:  41;

OLATHE - IXD   CLOUDY    37  26  64 SE6       30.26F WCI  32
6HR MIN TEMP:  32; 6HR MAX TEMP:  40;

OLATHE - OJC   CLOUDY    35  25  66 SE5       30.26F WCI  31
6HR MIN TEMP:  34; 6HR MAX TEMP:  40;

LAWRENCE       CLOUDY    32  26  78 N5        30.26F WCI  27

$$

MOZ001>008-011>017-020>025-030>033-038>040-044>046-053-054-060700-
...NORTHERN AND CENTRAL MISSOURI...

CITY           SKY/WX    TMP DP  RH WIND       PRES   REMARKS
ST. JOSEPH     PTCLDY    26  23  88 CALM      30.28R
6HR MIN TEMP:  26; 6HR MAX TEMP:  38;

MOSBY          CLOUDY    32  28  86 CALM      30.28S
WARRENSBURG    MOCLDY    34  25  69 S5        30.28S WCI  30
WHITEMAN AFB   MOCLDY    33  23  65 S2        30.27S
6HR MIN TEMP:  33; 6HR MAX TEMP:  41;

CLINTON          N/A     36  25  64 CALM      30.29S
SEDALIA        PTCLDY    34  21  59 SE6       30.29F WCI  29
6HR MIN TEMP:  33; 6HR MAX TEMP:  41;

WARSAW         NOT AVBL
CHILLICOTHE      N/A     31  23  72 CALM      30.29F
6HR MIN TEMP:  28; 6HR MAX TEMP:  36;

KIRKSVILLE     CLOUDY    30  20  66 S6        30.28F WCI  24
6HR MIN TEMP:  28; 6HR MAX TEMP:  31;


$$

MOZ041-047>049-056>058-063>065-088>090-097-060700-
...EASTERN AND SOUTHERN MISSOURI...

CITY           SKY/WX    TMP DP  RH WIND       PRES   REMARKS
ST. LOUIS INTL CLOUDY    32  19  58 CALM      30.33S
6HR MIN TEMP:  29; 6HR MAX TEMP:  38;

SPIRIT OF STL  CLOUDY    27  22  81 CALM      30.32F
COLUMBIA       CLOUDY    33  17  51 E7        30.29S WCI  27
JEFFERSON CITY CLOUDY    31  21  66 CALM      30.31S
ROLLA          CLEAR     34  18  52 SE10      30.27F WCI  26
OSAGE BEACH    CLEAR     32  18  55 SE6       30.29F WCI  26
SPRINGFIELD    CLOUDY    36  19  50 CALM      30.28S
BRANSON        PTCLDY    37  14  38 CALM      30.31F
JOPLIN         CLOUDY    42  17  36 S10       30.29S
WEST PLAINS    CLEAR     36  14  40 SW7       30.31S WCI  30

$$

IAZ060-094-KSZ022-034>040-054-083-096-NEZ052-066-093-060700-
...KANSAS...SOUTHEAST NEBRASKA AND IOWA...

CITY           SKY/WX    TMP DP  RH WIND       PRES   REMARKS
TOPEKA         CLOUDY    32  25  75 CALM      30.26F
6HR MIN TEMP:  31; 6HR MAX TEMP:  40;

MANHATTAN      CLEAR     29  23  78 CALM      30.28R
EMPORIA        PTCLDY    32  21  64 W7        30.25S WCI  26
CHANUTE        PTCLDY    38  25  59 S10       30.26S WCI  31
WICHITA        CLOUDY    35  25  66 NW6       30.28R WCI  30
OMAHA          MOCLDY    28  28 100 CALM      30.26R FOG
LINCOLN        CLOUDY    34  31  88 NW5       30.28R WCI  30
FALLS CITY     CLEAR     29  23  78 CALM      30.26S
LAMONI         CLOUDY    28  24  85 S6        30.25S WCI  22
DES MOINES     CLOUDY    31  25  78 SW5       30.26R WCI  26

$$




USA.gov is the U.S. government's official web portal to all federal, state and local government web resources and services.